DEPPL EDWS-EDWR

Flight info

Callsign DEPPL
Flight time N/A
Altitude 2000
Route JUIST
Aircraft C172/L-SFG/C

Departure

Time 2026-04-20 13:12
Airport Norden-Norddeich Airport (EDWS)

Arrival

Time N/A
Airport Borkum Airport (EDWR)
Time Latitude Longitude Altitude Speed Heading
2026-04-20 13:03 53.63213 7.19185 8 ft 0 kts 70°
2026-04-20 13:08 53.63214 7.19192 7 ft 0 kts 69°
2026-04-20 13:08 53.63214 7.19193 7 ft 0 kts 43°
2026-04-20 13:09 53.63220 7.19194 6 ft 2 kts 347°
2026-04-20 13:09 53.63229 7.19167 10 ft 1 kts 256°
2026-04-20 13:10 53.63225 7.19153 8 ft 1 kts 226°
2026-04-20 13:10 53.63158 7.19203 8 ft 12 kts 158°
2026-04-20 13:10 53.63106 7.19227 11 ft 12 kts 161°
2026-04-20 13:10 53.63020 7.19210 11 ft 13 kts 327°
2026-04-20 13:11 53.63041 7.19196 11 ft 0 kts 336°
2026-04-20 13:11 53.63095 7.19165 10 ft 28 kts 341°
2026-04-20 13:11 53.63441 7.18933 27 ft 74 kts 343°
2026-04-20 13:11 53.63892 7.18582 294 ft 72 kts 344°
2026-04-20 13:12 53.64358 7.18168 516 ft 77 kts 340°
2026-04-20 13:12 53.64801 7.17683 787 ft 75 kts 334°
2026-04-20 13:12 53.65168 7.17084 1111 ft 69 kts 331°
2026-04-20 13:12 53.65460 7.16469 1395 ft 67 kts 322°
2026-04-20 13:13 53.65750 7.15820 1599 ft 72 kts 323°
2026-04-20 13:13 53.66084 7.15100 1716 ft 89 kts 322°
2026-04-20 13:13 53.66427 7.14029 1698 ft 119 kts 298°
2026-04-20 13:13 53.66692 7.12798 1604 ft 103 kts 300°
2026-04-20 13:14 53.66950 7.11661 1424 ft 99 kts 311°
2026-04-20 13:14 53.67315 7.10806 1380 ft 90 kts 319°
2026-04-20 13:14 53.67728 7.09967 1136 ft 84 kts 346°
2026-04-20 13:14 53.68221 7.09983 1066 ft 69 kts 15°
2026-04-20 13:15 53.68678 7.10166 950 ft 69 kts 30°
2026-04-20 13:15 53.69052 7.10610 909 ft 65 kts 56°
2026-04-20 13:15 53.69220 7.11394 820 ft 76 kts 65°
2026-04-20 13:15 53.69396 7.12169 830 ft 68 kts 59°
2026-04-20 13:16 53.69608 7.12887 774 ft 67 kts 59°
2026-04-20 13:16 53.69805 7.13602 740 ft 68 kts 56°
2026-04-20 13:16 53.69998 7.14314 708 ft 64 kts 62°
2026-04-20 13:16 53.70096 7.14999 796 ft 59 kts 68°
2026-04-20 13:17 53.70191 7.15720 789 ft 64 kts 69°
2026-04-20 13:17 53.70308 7.16440 809 ft 64 kts 63°
2026-04-20 13:17 53.70395 7.17215 764 ft 69 kts 73°
2026-04-20 13:17 53.70466 7.17988 721 ft 61 kts 71°
2026-04-20 13:18 53.70500 7.18736 624 ft 66 kts 80°
2026-04-20 13:18 53.70529 7.19545 547 ft 76 kts 75°
2026-04-20 13:18 53.70571 7.20456 404 ft 75 kts 77°
2026-04-20 13:18 53.70623 7.21312 175 ft 73 kts 74°
2026-04-20 13:19 53.70655 7.22140 60 ft 68 kts 80°
2026-04-20 13:19 53.70680 7.22785 7 ft 42 kts 71°
2026-04-20 13:19 53.70698 7.23067 3 ft 32 kts 90°